| time (UTC) | temp F | wind direction | speed MPH | gust MPH | rain 1hr in | rain 24hr in | rain mn in | humidity % | barometer mb |
| 20260503021602 | 39 | 210 | 4.0 | 0.0 | 0.00 | 0.00 | 0.00 | 69 | 991.5 |
| 20260503020131 | 39 | 218 | 5.0 | 0.0 | 0.00 | 0.00 | 0.00 | 69 | 991.5 |
| 20260503014601 | 40 | 228 | 5.0 | 0.0 | 0.00 | 0.00 | 0.00 | 58 | 991.1 |
| 20260503013120 | 40 | 234 | 5.0 | 0.0 | 0.00 | 0.00 | 0.00 | 58 | 991.1 |
| 20260503011601 | 41 | 230 | 5.0 | 0.0 | 0.00 | 0.00 | 0.00 | 58 | 991.1 |
| 20260503010131 | 42 | 240 | 5.0 | 0.0 | 0.00 | 0.00 | 0.00 | 58 | 991.1 |
| 20260503004601 | 42 | 247 | 5.0 | 0.0 | 0.00 | 0.00 | 0.00 | 46 | 991.9 |
| 20260503003115 | 43 | 241 | 5.0 | 0.0 | 0.00 | 0.00 | 0.00 | 46 | 992.0 |
| 20260503001602 | 44 | 247 | 5.0 | 0.0 | 0.00 | 0.00 | 0.00 | 46 | 992.0 |
| 20260503000136 | 45 | 257 | 4.0 | 0.0 | 0.00 | 0.00 | 0.00 | 46 | 992.0 |
| 20260502234603 | 46 | 274 | 5.0 | 0.0 | 0.00 | 0.00 | 0.00 | 38 | 992.0 |
| 20260502233115 | 47 | 279 | 6.0 | 0.0 | 0.00 | 0.00 | 0.00 | 38 | 992.0 |
| 20260502231603 | 47 | 280 | 7.0 | 0.0 | 0.00 | 0.00 | 0.00 | 38 | 992.0 |
| 20260502230129 | 48 | 280 | 8.0 | 0.0 | 0.00 | 0.00 | 0.00 | 38 | 992.0 |
| 20260502224602 | 48 | 281 | 9.0 | 0.0 | 0.00 | 0.00 | 0.00 | 37 | 992.3 |
| 20260502223121 | 48 | 279 | 9.0 | 0.0 | 0.00 | 0.00 | 0.00 | 37 | 993.0 |
| 20260502221603 | 48 | 278 | 10.0 | 0.0 | 0.00 | 0.00 | 0.00 | 37 | 993.0 |
| 20260502220130 | 48 | 277 | 11.0 | 0.0 | 0.00 | 0.00 | 0.00 | 37 | 993.0 |
| 20260502214603 | 48 | 278 | 11.0 | 0.0 | 0.00 | 0.00 | 0.00 | 37 | 993.2 |
| 20260502213121 | 48 | 278 | 11.0 | 0.0 | 0.00 | 0.00 | 0.00 | 40 | 992.9 |
| 20260502211603 | 48 | 276 | 11.0 | 0.0 | 0.00 | 0.00 | 0.00 | 40 | 992.8 |
| 20260502210132 | 48 | 275 | 11.0 | 0.0 | 0.00 | 0.00 | 0.00 | 40 | 992.8 |
| 20260502204602 | 48 | 271 | 10.0 | 0.0 | 0.00 | 0.00 | 0.00 | 40 | 993.3 |
| 20260502203121 | 48 | 270 | 10.0 | 0.0 | 0.00 | 0.00 | 0.00 | 38 | 993.7 |
| 20260502201602 | 48 | 271 | 10.0 | 0.0 | 0.00 | 0.00 | 0.00 | 38 | 993.7 |
| 20260502200129 | 48 | 272 | 11.0 | 0.0 | 0.00 | 0.00 | 0.00 | 38 | 993.7 |
| 20260502194603 | 48 | 274 | 11.0 | 0.0 | 0.00 | 0.00 | 0.00 | 32 | 994.0 |
| 20260502193116 | 48 | 275 | 12.0 | 0.0 | 0.00 | 0.00 | 0.00 | 32 | 994.0 |
| 20260502191603 | 48 | 279 | 12.0 | 0.0 | 0.00 | 0.00 | 0.00 | 32 | 994.0 |
| 20260502190130 | 48 | 281 | 11.0 | 0.0 | 0.00 | 0.00 | 0.00 | 32 | 994.0 |
| 20260502184603 | 48 | 280 | 12.0 | 0.0 | 0.00 | 0.00 | 0.00 | 41 | 993.9 |
| 20260502183122 | 47 | 286 | 11.0 | 0.0 | 0.00 | 0.00 | 0.00 | 42 | 993.9 |
| 20260502181602 | 47 | 286 | 11.0 | 0.0 | 0.00 | 0.00 | 0.00 | 42 | 993.9 |
| 20260502180136 | 46 | 284 | 11.0 | 0.0 | 0.00 | 0.00 | 0.00 | 42 | 993.9 |
| 20260502170126 | 46 | 279 | 9.0 | 0.0 | 0.00 | 0.00 | 0.00 | 43 | 994.4 |
| 20260502163122 | 46 | 279 | 9.0 | 0.0 | 0.00 | 0.00 | 0.00 | 41 | 993.3 |
| 20260502161602 | 45 | 282 | 8.0 | 0.0 | 0.00 | 0.00 | 0.00 | 41 | 993.3 |
| 20260502160133 | 45 | 286 | 7.0 | 0.0 | 0.00 | 0.00 | 0.00 | 41 | 993.3 |
| 20260502151603 | 43 | 298 | 7.0 | 0.0 | 0.00 | 0.00 | 0.00 | 53 | 993.6 |
| 20260502150135 | 42 | 297 | 7.0 | 0.0 | 0.00 | 0.00 | 0.00 | 53 | 993.6 |
| 20260502130131 | 37 | 331 | 4.0 | 0.0 | 0.00 | 0.00 | 0.00 | 75 | 994.0 |
| 20260502123120 | 35 | 320 | 3.0 | 0.0 | 0.00 | 0.00 | 0.00 | 80 | 994.2 |
| 20260502121603 | 34 | 320 | 3.0 | 0.0 | 0.00 | 0.00 | 0.00 | 80 | 994.2 |
| 20260502120144 | 33 | 310 | 3.0 | 0.0 | 0.00 | 0.00 | 0.00 | 80 | 994.2 |
| 20260502114603 | 33 | 300 | 3.0 | 0.0 | 0.00 | 0.00 | 0.00 | 86 | 994.1 |
| 20260502113124 | 32 | 278 | 1.0 | 0.0 | 0.00 | 0.00 | 0.00 | 88 | 994.1 |
| 20260502111602 | 31 | 261 | 1.0 | 0.0 | 0.00 | 0.00 | 0.00 | 88 | 993.9 |
| 20260502110131 | 31 | 281 | 1.0 | 0.0 | 0.00 | 0.00 | 0.00 | 88 | 993.9 |
| 20260502104602 | 31 | 252 | 0.0 | 0.0 | 0.00 | 0.00 | 0.00 | 88 | 993.7 |
| 20260502103121 | 31 | 270 | 1.0 | 0.0 | 0.00 | 0.00 | 0.00 | 89 | 993.9 |
| 20260502101602 | 31 | 270 | 1.0 | 0.0 | 0.00 | 0.00 | 0.00 | 89 | 993.9 |
| 20260502100132 | 31 | 286 | 1.0 | 0.0 | 0.00 | 0.00 | 0.00 | 89 | 993.9 |
| 20260502090131 | 31 | 279 | 2.0 | 0.0 | 0.00 | 0.00 | 0.00 | 88 | 993.5 |
| 20260502070132 | 31 | 304 | 3.0 | 0.0 | 0.00 | 0.00 | 0.00 | 83 | 992.7 |
| 20260502064602 | 32 | 302 | 3.0 | 0.0 | 0.00 | 0.00 | 0.00 | 76 | 993.8 |
| 20260502063122 | 32 | 283 | 3.0 | 0.0 | 0.00 | 0.00 | 0.00 | 77 | 993.7 |
| 20260502061602 | 32 | 277 | 3.0 | 0.0 | 0.00 | 0.00 | 0.00 | 77 | 993.7 |
| 20260502060147 | 32 | 279 | 4.0 | 0.0 | 0.00 | 0.00 | 0.00 | 77 | 993.7 |
| 20260502054602 | 32 | 276 | 4.0 | 0.0 | 0.00 | 0.00 | 0.00 | 74 | 993.1 |
| 20260502053121 | 33 | 276 | 4.0 | 0.0 | 0.00 | 0.00 | 0.00 | 79 | 993.5 |
| 20260502051601 | 33 | 276 | 4.0 | 0.0 | 0.00 | 0.00 | 0.00 | 79 | 993.5 |
| 20260502050133 | 33 | 280 | 3.0 | 0.0 | 0.00 | 0.00 | 0.00 | 79 | 993.5 |
| 20260502044603 | 33 | 286 | 3.0 | 0.0 | 0.00 | 0.00 | 0.00 | 74 | 993.0 |
| 20260502043120 | 34 | 313 | 3.0 | 0.0 | 0.00 | 0.00 | 0.00 | 79 | 993.1 |
| 20260502041602 | 33 | 317 | 3.0 | 0.0 | 0.00 | 0.00 | 0.00 | 79 | 993.0 |
| 20260502040133 | 34 | 313 | 4.0 | 0.0 | 0.00 | 0.00 | 0.00 | 79 | 993.0 |
| 20260502034601 | 34 | 313 | 4.0 | 0.0 | 0.00 | 0.00 | 0.00 | 70 | 992.6 |
| 20260502033121 | 34 | 317 | 4.0 | 0.0 | 0.00 | 0.00 | 0.00 | 75 | 992.0 |
| 20260502031601 | 35 | 321 | 4.0 | 0.0 | 0.00 | 0.00 | 0.00 | 75 | 992.0 |
| 20260502030132 | 35 | 321 | 4.0 | 0.0 | 0.00 | 0.00 | 0.00 | 75 | 992.0 |
| 20260502024600 | 35 | 321 | 4.0 | 0.0 | 0.00 | 0.00 | 0.00 | 67 | 991.6 |
| 20260502023119 | 35 | 313 | 5.0 | 0.0 | 0.00 | 0.00 | 0.00 | 71 | 992.5 |